Regional Weather Roundup
Issued by NWS Sterling, VA

Home | Current Version | Previous Version | Text Only | Print | Product List | Glossary Off
Versions: 1 2 3 4 5 6 7 8 9 10 11 12 13 14 15 16 17 18 19 20 21 22 23 24 25 26 27 28 29 30 31 32 33 34 35 36 37 38 39 40 41 42 43 44 45 46 47 48 49 50

000
ASUS41 KLWX 300210
RWRLWX

REGIONAL WEATHER ROUNDUP
NATIONAL WEATHER SERVICE BALTIMORE MD/WASHINGTON DC
1000 PM EDT FRI AUG 29 2014

Note: "FAIR" indicates few or no clouds below 12,000 feet
with no significant weather and/or obstructions to visibility.
 TC=TEMPERATURE CELSIUS

 * =Non NWS site. Station does not report precipitation (e.g. rain,
    snow, etc.), thunder, or fog.

DCZ001-MDZ009-015-VAZ040>042-051-053>054-300300-
WASHINGTON METRO
  /KDAA//-FT BELVOIR

CITY           SKY/WX    TMP DP  RH WIND       PRES   REMARKS
WASHINGTON NAT PTCLDY    73  55  53 CALM      30.21R
DULLES         PTCLDY    67  55  65 SE6       30.20R
ANDREWS AFB    CLEAR     65  58  77 E5        30.21R
QUANTICO       CLEAR     72  58  61 S6        30.21R
COLLEGE PARK*  CLEAR     64  59  82 CALM      30.20R
LEESBURG*      CLEAR     70  57  64 CALM      30.22R
MANASSAS*      CLEAR     68  61  77 CALM      30.20R
GAITHERSBURG*  CLEAR     63  54  72 E3        30.25R

$$

MDZ006>007-011-014-300300-
BALTIMORE METRO

CITY           SKY/WX    TMP DP  RH WIND       PRES   REMARKS
BWI AIRPORT    PTCLDY    65  57  75 CALM      30.21R
MD SCIENCE CTR   N/A     73  57  57 MISG      30.21R
MARTIN STATE   PTCLDY    72  61  68 E12       30.12F
ANNAPOLIS      CLEAR     73  62  68 SE15      30.20R
FORT MEADE*    CLEAR     59  55  88 CALM      30.23R

$$

MDZ012-015-019>023-300300-
MARYLAND EASTERN SHORE

CITY           SKY/WX    TMP DP  RH WIND       PRES   REMARKS
OCEAN CITY     CLEAR     71  60  68 E7        30.21R
SALISBURY      CLEAR     66  60  81 CALM      30.21R
BAY BRIDGE AP*   N/A     70  57  64 SE7       30.21R
CAMBRIDGE*     CLEAR     66  59  77 SE5       30.21R

$$

MDZ017>025-300300-
SOUTHERN MARYLAND

CITY           SKY/WX    TMP DP  RH WIND       PRES   REMARKS
PATUXENT RIVER MOCLDY    73  63  70 SE13      30.20R
ST INIGOES     CLEAR     71  61  70 E6        30.20R
LEONARDTOWN*   CLEAR     68  55  64 SE5       30.22R

$$

MDZ003>005-300300-
NORTH CENTRAL MARYLAND

CITY           SKY/WX    TMP DP  RH WIND       PRES   REMARKS
FREDERICK*     PTCLDY    63  59  88 CALM      30.23R
HAGERSTOWN APT CLEAR     67  55  65 E7        30.20R
WESTMINSTER*   CLEAR     66  55  68 SE5       30.22R

$$

MDZ501>502-300300-
WESTERN MARYLAND

CITY           SKY/WX    TMP DP  RH WIND       PRES   REMARKS
OAKLAND*       CLEAR     61  57  88 SE10G17   30.23R
CUMBERLAND*    CLEAR     70  50  49 NW3       30.22R

$$

VAZ025>031-300300-
SHENANDOAH VALLEY

CITY           SKY/WX    TMP DP  RH WIND       PRES   REMARKS
WINCHESTER*    CLEAR     63  59  88 CALM      30.20R
STAUNTON*      CLEAR     70  60  69 CALM      30.23R

$$

WVZ021-048>050-054>055-300300-
EASTERN WEST VIRGINIA PANHANDLE

CITY           SKY/WX    TMP DP  RH WIND       PRES   REMARKS
MARTINSBURG    CLEAR     67  56  67 E3        30.20R
PETERSBURG*    NOT AVBL

$$

VAZ036>039-050-300300-
CENTRAL FOOTHILLS

CITY           SKY/WX    TMP DP  RH WIND       PRES   REMARKS
CHARLOTTESVILL PTCLDY    68  64  87 CALM      30.19R
ORANGE*        CLOUDY    64  63  94 CALM      30.21R

$$

VAZ055>057-300300-
NORTH AND CENTRAL PIEDMONT

CITY           SKY/WX    TMP DP  RH WIND       PRES   REMARKS
FREDERICKSBRG* PTCLDY    71  61  70 CALM      30.20R
STAFFORD*      CLEAR     65  64  94 CALM      30.25R

$$

NCZ024-NYZ072-PAZ021-071-VAZ022-071-300300-
OTHER REGIONAL OBSERVATIONS

CITY           SKY/WX    TMP DP  RH WIND       PRES   REMARKS
NEW YORK CITY  PTCLDY    69  53  56 VRB3      30.27R
PHILADELPHIA   PTCLDY    68  58  70 SE6       30.23R
PITTSBURGH     PTCLDY    68  55  63 CALM      30.12R
ROANOKE        CLOUDY    75  66  73 SE7       30.21R
RICHMOND       CLOUDY    73  61  65 SE8       30.20R
RALEIGH        PTCLDY    75  70  84 E5        30.17R

$$

ANZ530>537-300300-
MARINE OBSERVATIONS

STATION/POSITION TIME  TEMP    WIND        PRES
                       AIR SEA DIR/SP/G
                 (UTC) (F)     (DEG/KT/KT) (MB)
THOMAS PT LIGHT  0200   71 77  130/ 16/ 18 1023.7R
BALT KEY BRIDGE  0200   79     110/ 16/ 18 1022.2R
COVE POINT       0200   72     140/ 15/ 18 1022.7R
LEWISETTA        0200   71 79  150/  8/  9 1022.5R
SOLOMONS ISLAND  0200      81                N/A
PINEY POINT      0200          150/ 16/ 17   N/A

$$




USA.gov is the U.S. government's official web portal to all federal, state and local government web resources and services.